Regional Weather Roundup
Issued by NWS

Home | Current Version | Previous Version | Graphics & Text | Print | Product List | Glossary On
Versions: 1 2 3 4 5 6 7 8 9 10 11 12 13 14 15 16 17 18 19 20 21 22 23 24 25 26 27 28 29 30 31 32 33 34 35 36 37 38 39 40 41 42 43 44 45 46 47 48 49 50
000
ASUS43 KMPX 281010
RWRMN
WEATHER ROUNDUP FOR MINNESOTA
NATIONAL WEATHER SERVICE TWIN CITIES/CHANHASSEN MN
500 AM CDT MON JUL 28 2014


NOTE: "FAIR" INDICATES FEW OR NO CLOUDS BELOW 12,000 FEET WITH NO
SIGNIFICANT WEATHER AND/OR OBSTRUCTIONS TO VISIBILITY. N/A MEANS
CURRENT SKY AND/OR WEATHER CONDITIONS ARE NOT AVAILABLE.

MNZ060>063-068>070-281100-
   Twin Cities Metro

CITY           SKY/WX    TMP DP  RH WIND       PRES   REMARKS
TWIN CITIES    CLOUDY    63  58  83 NW6       30.16R
ST PAUL        MOCLDY    63  57  81 NW7       30.16R
CRYSTAL        CLOUDY    64  57  78 NW3       30.15R
BLAINE         CLOUDY    63  61  94 NW3       30.16R
LAKEVILLE      CLOUDY    63  57  82 NW6       30.16R
EDEN PRAIRIE   CLOUDY    64  58  80 NW5       30.16R
SOUTH ST PAUL  CLOUDY    64  55  74 NW3       30.16R
LAKE ELMO      MOCLDY    61  57  88 N3        30.17R
$$
MNZ001>005-007-008-013>017-022>024-027-028-281100-
   Northwest Minnesota

CITY           SKY/WX    TMP DP  RH WIND       PRES   REMARKS
BEMIDJI        CLOUDY    58  55  91 NW6       30.21S
HALLOCK        CLOUDY    57  54  88 CALM      30.24S
ROSEAU         PTCLDY    55  52  88 W3        30.22S
WARROAD        CLOUDY    55  52  88 NW7       30.22S
THIEF RVR FALL CLOUDY    59  55  88 NW6       30.24R
CROOKSTON      CLOUDY    59  55  88 NW5       30.25R
FOSSTON        CLOUDY    57  54  88 NW5       30.24R
DETROIT LAKES  CLOUDY    59  57  94 NW6       30.25R
MOORHEAD       CLOUDY    61  59  94 NW5       30.25R
PARK RAPIDS    CLOUDY    59  55  87 NW6       30.21R
$$
MNZ006-009>011-018-025>026-281100-
   North Central Minnesota

CITY           SKY/WX    TMP DP  RH WIND       PRES   REMARKS
BAUDETTE       MOCLDY    56  54  93 CALM      30.21R
FLAG ISLAND    PTCLDY    57  55  94 NW8       30.19S
INTL FALLS     CLOUDY    50  49  96 CALM      30.18R
WASKISH        CLEAR     55  54  94 CALM      30.20S
BIG FORK       CLEAR     52  48  87 NW1       30.20R
LONGVILLE      CLOUDY    61  57  88 CALM      30.19R
GRAND RAPIDS   MOCLDY    55  52  88 CALM      30.19R
CRANE LAKE     PTCLDY    46  45  93 CALM      30.18S
ORR            CLOUDY    55  54  94 CALM      30.16R
COOK           CLOUDY    54  52  94 CALM      30.18R
$$
MNZ012-019>021-037-281100-
   Northeast Minnesota

CITY           SKY/WX    TMP DP  RH WIND       PRES   REMARKS
DULUTH         CLOUDY    57  53  86 NW7       30.15S
ELY            CLOUDY    52  50  93 CALM      30.15S
HIBBING        CLOUDY    55  52  89 NW3       30.17R
EVELETH        CLOUDY    59  50  72 NW3       30.17S
DULUTH HARBOR  CLOUDY    59  55  88 SW6       30.15S
TWO HARBORS    CLOUDY    57  52  82 CALM      30.13R
SILVER BAY     CLEAR     55  55 100 NW3       30.12S
GRAND MARAIS     N/A     59  51  75 NW8       30.09R
G MARAIS ARPRT   N/A     52  46  82 W5        30.13S
$$
MNZ029>031-032-039>041-046>048-054>057-064-281100-
   West Central Minnesota

CITY           SKY/WX    TMP DP  RH WIND       PRES   REMARKS
FERGUS FALLS   CLOUDY    61  57  88 N7        30.24R
WHEATON        CLOUDY    59  55  88 NW5       30.26R
MORRIS         CLOUDY    61  57  88 NW6       30.22R
ALEXANDRIA     CLOUDY    62  58  86 NW9       30.23R
ELBOW LAKE     CLOUDY    60  58  92 NW7       30.23R
WADENA         CLOUDY    59  55  88 NW5       30.21R
GLENWOOD       CLOUDY    61  59  94 NW5       30.22S
APPLETON       CLOUDY    61  57  88 NW6       30.22S
BENSON         CLOUDY    61  59  94 N5        30.22R
ORTONVILLE     CLOUDY    61  55  82 NW7       30.24R
MADISON        MOCLDY    63  59  88 NW6       30.23S
WILLMAR        CLOUDY    63  59  88 NW6       30.22R
$$
MNZ033>034-036-042>043-049>051-058-059-281100-
   Central Minnesota

CITY           SKY/WX    TMP DP  RH WIND       PRES   REMARKS
ST CLOUD       CLOUDY    64  58  80 NW5       30.17R
SAUK CENTRE    CLOUDY    61  58  89 NW7       30.21R
PAYNESVILLE    CLOUDY    59  58  96 W5        30.21R
AITKIN         CLOUDY    61  55  82 CALM      30.17R
PINE RIVER     CLOUDY    61  55  82 NW3       30.22S
BRAINERD       CLOUDY    62  56  80 NW7       30.19R
STAPLES        CLOUDY    59  55  88 CALM      30.21R
LONG PRAIRIE   CLOUDY    59  55  88 W5        30.21R
LITTLE FALLS   CLOUDY    61  55  82 CALM      30.19R
LITCHFIELD     CLOUDY    63  63 100 NW5       30.20R
BUFFALO        CLOUDY    63  57  81 NW6       30.18R
MAPLE LAKE     CLOUDY    63  60  89 CALM      30.19R
$$
MNZ037-044-045-052-053-281100-
   East Central Minnesota

CITY           SKY/WX    TMP DP  RH WIND       PRES   REMARKS
PRINCETON      CLOUDY    63  57  82 NW5       30.17S
MORA           CLOUDY    59  52  77 CALM      30.18S
CAMBRIDGE      CLOUDY    63  54  72 CALM      30.15R
RUSH CITY      CLOUDY    59  55  87 CALM      30.17R
MOOSE LAKE     CLOUDY    55  54  94 CALM      30.15S
HINCKLEY       CLOUDY    59  55  88 N5        30.16R
CLOQUET        CLOUDY    55  54  94 NW5       30.16S
MCGREGOR       CLOUDY    57  55  94 CALM      30.18R
$$
MNZ071>073-080-081-089-090-097-098-281100-
   Southwest Minnesota

CITY           SKY/WX    TMP DP  RH WIND       PRES   REMARKS
MONTEVIDEO     CLOUDY    61  57  88 N3        30.23R
GRANITE FALLS  CLOUDY    61  59  94 NW6       30.23R
CANBY          CLOUDY    60  56  85 NW7       30.25R
MARSHALL       CLOUDY    61  55  82 NW9       30.21S
REDWOOD FALLS  CLOUDY    62  60  93 NW6       30.20R
OLIVIA         CLOUDY    63  59  88 NW6       30.20R
PIPESTONE      CLOUDY    57  54  88 N6        30.24R
WINDOM         CLOUDY    61  57  88 NW7       30.21R
WORTHINGTON    PTCLDY    57  55  94 NW7       30.22S
JACKSON        CLOUDY    61  55  82 NW7       30.21R
TRACY          CLOUDY    61  58  91 NW7       30.23R
SLAYTON        MOCLDY    58  56  95 CALM      30.23S
$$
MNZ065>067-074>077-082>085-091>093-281100-
   South Central Minnesota

CITY           SKY/WX    TMP DP  RH WIND       PRES   REMARKS
MANKATO        MOCLDY    57  54  88 W3        30.18R
NEW ULM        CLOUDY    61  61 100 NW5       30.19R
ST JAMES       CLOUDY    61  61 100 W3        30.20R
FAIRMONT       CLOUDY    61  55  82 N6        30.19R
GLENCOE        MOCLDY    63  59  86 W5        30.18R
FARIBAULT      CLOUDY    64  57  77 W3        30.18R
OWATONNA       CLOUDY    61  57  88 CALM      30.17S
WASECA         CLEAR     54  50  87 CALM      30.19R
ALBERT LEA     MOCLDY    57  55  94 CALM      30.18R
$$
MNZ078>079-086>088-094>096-281100-
   Southeast Minnesota

CITY           SKY/WX    TMP DP  RH WIND       PRES   REMARKS
ROCHESTER      CLOUDY    58  55  90 W5        30.18R
RED WING       PTCLDY    55  55 100 CALM      30.14S
STANTON        CLOUDY    62  58  88 CALM      30.15R
DODGE CENTER   CLOUDY    61  55  82 CALM      30.17R
WINONA         CLOUDY    57  55  94 NW5       30.14S
AUSTIN         CLOUDY    59  55  88 CALM      30.16S
PRESTON        CLOUDY    56  56 100 NW3       30.16R
$$
ABBREVIATIONS USED IN REMARKS
   TC - TEMPERATURES IN CELSIUS
  WCI - WIND CHILL INDEX
   HX - HEAT INDEX
  VSB - VISIBILITY
$$



USA.gov is the U.S. government's official web portal to all federal, state and local government web resources and services.